GW0097 Weather Reports


Display with metric or nautical units.
time (UTC)temp
F
wind
direction
speed
MPH
gust
MPH
rain 1hr
in
rain 24hr
in
rain mn
in
humidity
%
barometer
mb
20260504201006 63 258 5.0 12.0 0.00 0.00 0.00 79 1012.5
20260504200006 64 226 5.0 12.0 0.00 0.00 0.00 77 1012.5
20260504195006 64 242 2.0 12.0 0.00 0.00 0.00 78 1012.7
20260504194006 63 223 5.0 12.0 0.00 0.00 0.00 78 1012.7
20260504193006 63 244 6.0 12.0 0.00 0.00 0.00 78 1012.7
20260504192006 64 225 3.0 9.0 0.00 0.00 0.00 77 1012.7
20260504190007 64 224 4.0 12.0 0.00 0.00 0.00 78 1012.7
20260504185006 63 216 5.0 10.0 0.00 0.00 0.00 78 1012.7
20260504184006 63 234 3.0 12.0 0.00 0.00 0.00 79 1012.7
20260504183006 63 296 4.0 12.0 0.00 0.00 0.00 79 1012.6
20260504182007 63 231 4.0 12.0 0.00 0.00 0.00 79 1012.6
20260504181007 63 226 2.0 12.0 0.00 0.00 0.00 80 1012.5
20260504180006 62 205 5.0 10.0 0.00 0.00 0.00 81 1012.4
20260504175006 62 225 3.0 10.0 0.00 0.00 0.00 81 1012.3
20260504174006 62 232 3.0 10.0 0.00 0.00 0.00 81 1012.4
20260504172006 62 216 2.0 8.0 0.00 0.00 0.00 81 1012.2
20260504171006 61 228 3.0 6.0 0.00 0.00 0.00 82 1012.1
20260504151006 54 228 2.0 9.0 0.00 0.00 0.00 94 1011.5
20260504082005 52 212 2.0 5.0 0.00 0.00 0.00 97 1009.4
20260504081005 52 227 2.0 7.0 0.00 0.00 0.00 97 1009.4
20260504050005 66 43 0.0 0.0 0.00 0.00 0.00 64 1007.8
20260504045005 66 43 0.0 2.0 0.00 0.00 0.00 62 1007.6
20260504044005 67 53 1.0 2.0 0.00 0.00 0.00 65 1007.7
20260504043005 67 17 0.0 1.0 0.00 0.00 0.00 66 1007.6
20260504042005 67 62 0.0 3.0 0.00 0.00 0.00 65 1007.5
20260504041006 68 65 1.0 3.0 0.00 0.00 0.00 64 1007.3
20260504040005 68 48 2.0 3.0 0.00 0.00 0.00 64 1007.3
20260504035005 68 36 1.0 3.0 0.00 0.00 0.00 65 1007.2
20260504034005 69 43 1.0 2.0 0.00 0.00 0.00 65 1007.1
20260504033005 71 295 0.0 2.0 0.00 0.00 0.00 64 1007.0
20260504032007 71 291 1.0 2.0 0.00 0.00 0.00 60 1006.9
20260504031005 72 69 1.0 2.0 0.00 0.00 0.00 60 1006.7
20260504030008 73 286 1.0 2.0 0.00 0.00 0.00 57 1006.6
20260504024006 75 296 2.0 3.0 0.00 0.00 0.00 53 1006.5
20260504023007 76 40 0.0 2.0 0.00 0.00 0.00 53 1006.6
20260504022005 76 318 2.0 5.0 0.00 0.00 0.00 51 1006.6
20260504021007 77 23 0.0 3.0 0.00 0.00 0.00 50 1006.7
20260504015007 77 224 2.0 7.0 0.00 0.00 0.00 52 1006.7
20260504014007 76 251 2.0 5.0 0.00 0.00 0.00 54 1006.6
20260504013008 77 183 2.0 6.0 0.00 0.00 0.00 54 1006.7
20260504013006 77 181 1.0 6.0 0.00 0.00 0.00 54 1006.7
20260504012007 77 194 2.0 3.0 0.00 0.00 0.00 53 1006.7
20260504011006 78 136 1.0 6.0 0.00 0.00 0.00 53 1006.9
20260504010007 79 231 1.0 5.0 0.00 0.00 0.00 52 1006.9
20260504005007 80 169 2.0 7.0 0.00 0.00 0.00 51 1007.0
20260504004007 80 273 3.0 7.0 0.00 0.00 0.00 50 1007.1
20260504004005 80 245 3.0 7.0 0.00 0.00 0.00 50 1007.1
20260504003006 81 331 2.0 5.0 0.00 0.00 0.00 49 1007.2
20260504002007 81 306 1.0 7.0 0.00 0.00 0.00 49 1007.3
20260504001007 81 95 1.0 6.0 0.00 0.00 0.00 49 1007.4
20260504000006 80 298 2.0 5.0 0.00 0.00 0.00 51 1007.4
20260503235007 78 280 2.0 8.0 0.00 0.00 0.00 54 1007.5
20260503234006 78 42 3.0 6.0 0.00 0.00 0.00 53 1007.6
20260503233006 79 329 2.0 7.0 0.00 0.00 0.00 53 1007.6
20260503232007 80 299 3.0 9.0 0.00 0.00 0.00 51 1007.7
20260503231007 81 319 4.0 10.0 0.00 0.00 0.00 50 1007.8
20260503230007 83 304 2.0 7.0 0.00 0.00 0.00 48 1007.9
20260503225007 83 290 2.0 7.0 0.00 0.00 0.00 46 1008.1
20260503224007 84 22 2.0 3.0 0.00 0.00 0.00 46 1008.1
20260503223007 82 32 3.0 9.0 0.00 0.00 0.00 48 1008.2
20260503222007 82 15 5.0 8.0 0.00 0.00 0.00 48 1008.3
20260503221007 82 355 2.0 8.0 0.00 0.00 0.00 49 1008.4
20260503220006 84 318 2.0 6.0 0.00 0.00 0.00 48 1008.5
20260503215007 84 323 4.0 7.0 0.00 0.00 0.00 42 1008.6
20260503214006 85 27 3.0 7.0 0.00 0.00 0.00 42 1008.6
20260503213006 85 12 2.0 9.0 0.00 0.00 0.00 39 1008.7
20260503212007 85 71 8.0 10.0 0.00 0.00 0.00 38 1008.8
20260503211006 84 45 6.0 9.0 0.00 0.00 0.00 39 1008.8
20260503210006 84 72 6.0 12.0 0.00 0.00 0.00 41 1008.9
20260503205006 83 61 5.0 9.0 0.00 0.00 0.00 44 1009.1
20260503204006 83 52 6.0 12.0 0.00 0.00 0.00 43 1009.3
20260503203006 82 67 7.0 12.0 0.00 0.00 0.00 46 1009.4